Regional Weather Roundup
Issued by NWS

Home | Current Version | Previous Version | Graphics & Text | Print | Product List | Glossary On
Versions: 1 2 3 4 5 6 7 8 9 10 11 12 13 14 15 16 17 18 19 20 21 22 23 24 25 26 27 28 29 30 31 32 33 34 35 36 37 38 39 40 41 42 43 44 45 46 47 48 49 50
000
ASUS45 KCYS 271810
RWRWY

WYOMING REGIONAL WEATHER ROUNDUP
NATIONAL WEATHER SERVICE CHEYENNE WY
1200 PM MDT WED MAY 27 2015

NOTE:  "FAIR" INDICATES FEW OR NO CLOUDS BELOW 12,000 FEET
WITH NO SIGNIFICANT WEATHER AND/OR OBSTRUCTIONS TO VISIBILITY.

WYZ001-271900-
YELLOWSTONE NATIONAL PARK

CITY           SKY/WX    TMP DP  RH WIND       PRES   REMARKS
LK YELLOWSTONE NOT AVBL
W YELLOWSTONE  NOT AVBL

$$
WYZ002>013-054>058-071-098>099-271900-
NORTHERN WYOMING

CITY           SKY/WX    TMP DP  RH WIND       PRES   REMARKS
JACKSON        PTSUNNY   48  45  87 VRB6      30.12S
CODY           FAIR      63  46  55 N7        30.02S
GREYBULL       FAIR      66  48  52 E7        29.99F
6HR MIN TEMP:  54; 6HR MAX TEMP:  66;

WORLAND        FAIR      66  47  50 CALM      30.00F
6HR MIN TEMP:  50; 6HR MAX TEMP:  66;

SHERIDAN       FAIR      66  50  56 W5        29.99S
6HR MIN TEMP:  49; 6HR MAX TEMP:  66;

BUFFALO        PTSUNNY   64  50  60 N12       30.02S
6HR MIN TEMP:  50; 6HR MAX TEMP:  64; 6HR PCP:  0.02;

GILLETTE       FAIR      67  49  52 VRB6      29.98S
6HR MIN TEMP:  47; 6HR MAX TEMP:  68;

HULETT         MOCLDY    68  48  49 S9        30.00S
NEWCASTLE      FAIR      64  48  55 S8        30.02F

$$
WYZ014>020-022>026-101>103-271900-
CENTRAL WYOMING

CITY           SKY/WX    TMP DP  RH WIND       PRES   REMARKS
BIG PINEY      PTSUNNY   55  37  50 S5        30.14F
6HR MIN TEMP:  34; 6HR MAX TEMP:  57;

PINEDALE       CLOUDY    52  34  50 CALM      30.15F
DUBOIS         CLOUDY    52  32  46 N8        30.10F
LANDER         PTSUNNY   64  45  49 E7        30.04F
6HR MIN TEMP:  44; 6HR MAX TEMP:  64;

RIVERTON       FAIR      64  41  42 SW3       30.05F
6HR MIN TEMP:  46; 6HR MAX TEMP:  65;

CASPER         FAIR      66  45  46 SW18G24   30.03S
6HR MIN TEMP:  50; 6HR MAX TEMP:  67;

DOUGLAS        PTSUNNY   67  46  47 W5        30.03F
6HR MIN TEMP:  48; 6HR MAX TEMP:  67; 6HR PCP: TRACE;


$$
WYZ021-027>030-104>119-271900-
SOUTHERN WYOMING

CITY           SKY/WX    TMP DP  RH WIND       PRES   REMARKS
EVANSTON       FAIR      56  43  61 W18       30.15S
KEMMERER       CLOUDY    54  41  62 CALM      30.16F
FORT BRIDGER   CLOUDY    55  43  62 NW5       30.17F
ROCK SPRINGS   FAIR      58  38  47 W10       30.15F
6HR MIN TEMP:  43; 6HR MAX TEMP:  58;

RAWLINS        FAIR      59  40  49 SW16      30.15S
6HR MIN TEMP:  46; 6HR MAX TEMP:  60; 6HR PCP:  0.01;

SARATOGA       CLOUDY    55  39  54 SW6       30.18F
LARAMIE        FAIR      59  39  47 SW13G24   30.14F
6HR MIN TEMP:  44; 6HR MAX TEMP:  60;

CHEYENNE       PTSUNNY   60  43  53 W18G28    30.11S
6HR MIN TEMP:  48; 6HR MAX TEMP:  66; 6HR PCP:  0.04;

TORRINGTON     FAIR      68  48  48 SW15G22   30.02F
6HR MIN TEMP:  50; 6HR MAX TEMP:  70;

PINE BLUFFS    FAIR      68  45  42 W5        30.07F

$$


USA.gov is the U.S. government's official web portal to all federal, state and local government web resources and services.